| time (UTC) | temp F | wind direction | speed MPH | gust MPH | rain 1hr in | rain 24hr in | rain mn in | humidity % | barometer mb |
| 20260506100040 | 56 | 206 | 3.0 | 7.0 | 0.00 | 0.01 | 0.01 | 28 | 1009.3 |
| 20260506093031 | 55 | 313 | 3.0 | 8.0 | 0.00 | 0.01 | 0.01 | 28 | 1009.6 |
| 20260506090022 | 56 | 188 | 3.0 | 6.0 | 0.00 | 0.01 | 0.01 | 29 | 1009.7 |
| 20260506083113 | 56 | 148 | 2.0 | 6.0 | 0.00 | 0.01 | 0.01 | 30 | 1009.8 |
| 20260506080205 | 58 | 294 | 2.0 | 6.0 | 0.00 | 0.01 | 0.01 | 31 | 1009.8 |
| 20260506073054 | 62 | 315 | 1.0 | 3.0 | 0.01 | 0.01 | 0.01 | 32 | 1009.7 |
| 20260506050105 | 29 | 270 | 1.0 | 3.0 | 0.00 | 0.02 | 0.00 | 82 | 1009.4 |
| 20260506043055 | 27 | 275 | 1.0 | 2.0 | 0.00 | 0.02 | 0.00 | 82 | 1009.3 |
| 20260506040047 | 26 | 270 | 0.0 | 2.0 | 0.00 | 0.02 | 0.00 | 81 | 1009.1 |
| 20260506033036 | 26 | 270 | 1.0 | 3.0 | 0.00 | 0.02 | 0.00 | 80 | 1009.0 |
| 20260506030047 | 26 | 270 | 1.0 | 3.0 | 0.00 | 0.02 | 0.00 | 80 | 1008.9 |
| 20260506023016 | 26 | 270 | 1.0 | 2.0 | 0.00 | 0.02 | 0.00 | 78 | 1008.7 |
| 20260506020106 | 27 | 270 | 1.0 | 3.0 | 0.00 | 0.02 | 0.00 | 77 | 1008.5 |
| 20260506013057 | 27 | 270 | 0.0 | 2.0 | 0.00 | 0.02 | 0.00 | 75 | 1008.4 |
| 20260506010047 | 27 | 270 | 1.0 | 2.0 | 0.00 | 0.02 | 0.00 | 72 | 1008.1 |
| 20260506003038 | 28 | 270 | 1.0 | 2.0 | 0.00 | 0.02 | 0.00 | 70 | 1008.0 |
| 20260506000028 | 28 | 270 | 1.0 | 3.0 | 0.00 | 0.02 | 0.00 | 69 | 1008.0 |
| 20260505233018 | 30 | 270 | 1.0 | 3.0 | 0.00 | 0.02 | 0.00 | 66 | 1007.9 |
| 20260505230110 | 31 | 270 | 1.0 | 3.0 | 0.00 | 0.02 | 0.00 | 63 | 1007.8 |
| 20260505223058 | 32 | 270 | 1.0 | 3.0 | 0.00 | 0.02 | 0.00 | 61 | 1007.7 |
| 20260505220049 | 33 | 270 | 1.0 | 2.0 | 0.00 | 0.02 | 0.00 | 60 | 1007.6 |
| 20260505213040 | 35 | 270 | 0.0 | 2.0 | 0.00 | 0.02 | 0.02 | 58 | 1007.4 |
| 20260505210051 | 36 | 270 | 1.0 | 2.0 | 0.00 | 0.02 | 0.02 | 55 | 1007.2 |
| 20260505203019 | 39 | 270 | 1.0 | 3.0 | 0.00 | 0.02 | 0.02 | 54 | 1007.1 |
| 20260505200111 | 41 | 270 | 1.0 | 3.0 | 0.00 | 0.02 | 0.02 | 52 | 1006.8 |
| 20260505193100 | 43 | 281 | 1.0 | 3.0 | 0.00 | 0.02 | 0.02 | 48 | 1006.5 |
| 20260505190049 | 48 | 286 | 1.0 | 5.0 | 0.00 | 0.02 | 0.02 | 34 | 1006.2 |
| 20260505183043 | 50 | 278 | 3.0 | 6.0 | 0.00 | 0.02 | 0.02 | 32 | 1005.9 |
| 20260505180112 | 52 | 270 | 4.0 | 8.0 | 0.00 | 0.02 | 0.02 | 31 | 1005.8 |
| 20260505173043 | 53 | 270 | 5.0 | 11.0 | 0.00 | 0.02 | 0.02 | 31 | 1005.6 |
| 20260505170112 | 55 | 269 | 5.0 | 12.0 | 0.00 | 0.02 | 0.02 | 30 | 1005.5 |
| 20260505163101 | 54 | 266 | 6.0 | 15.0 | 0.00 | 0.02 | 0.02 | 30 | 1005.4 |
| 20260505153043 | 55 | 280 | 7.0 | 16.0 | 0.00 | 0.02 | 0.02 | 28 | 1005.4 |
| 20260505140112 | 55 | 266 | 7.0 | 18.0 | 0.00 | 0.02 | 0.02 | 29 | 1005.3 |
| 20260505123103 | 54 | 256 | 6.0 | 14.0 | 0.00 | 0.02 | 0.02 | 31 | 1005.2 |
| 20260505120032 | 54 | 233 | 7.0 | 19.0 | 0.00 | 0.02 | 0.02 | 33 | 1005.1 |
| 20260505113021 | 53 | 253 | 6.0 | 14.0 | 0.00 | 0.02 | 0.02 | 36 | 1005.0 |
| 20260505110112 | 53 | 247 | 6.0 | 13.0 | 0.00 | 0.02 | 0.02 | 37 | 1004.8 |